Weather History for Barking Sands, HI

Change the Weather History Date:

Saturday, November 3, 2012

  Actual Average Record
Temperature  
Mean Temperature 78 °F -  
Max Temperature 84 °F 85 °F 89 °F (1974)
Min Temperature 73 °F 64 °F 60 °F (1976)
Cooling Degree Days 14    
Growing Degree Days 28 (Base 50)    
Moisture  
Dew Point 42 °F    
Average Humidity 31    
Maximum Humidity 47    
Minimum Humidity 9    
Precipitation  
Precipitation 0.00 in - - ()
Sea Level Pressure  
Sea Level Pressure 29.95 in    
Wind  
Wind Speed 7 mph (SE)    
Max Wind Speed 13 mph    
Max Gust Speed 17 mph    
Visibility 10 miles    
Events      
Averages and records for this station are not official NWS values.
T = Trace of Precipitation, MM = Missing Value Source: NWS Daily Summary

Daily Weather History Graph

Daily Weather History Graph

Search for Another Location

Airport:

Trip Planner

Search our weather history database for the weather conditions in past years. The results will help you decide how hot, cold, wet, or windy it might be!

Date:

Astronomy

Nov. 03, 2012 Rise Set
Actual Time 6:44 AM HST 6:00 PM HST
Civil Twilight 6:21 AM HST 6:23 PM HST
Nautical Twilight 5:54 AM HST 6:50 PM HST
Astronomical Twilight 5:28 AM HST 7:16 PM HST
Moon 10:02 PM HST (11/3) 10:45 AM HST (11/3)
Length of Visible Light 12h 02m
Length of Day
11h 16m
Waning Gibbous, 78% of the Moon is Illuminated
Nov 3
Waning Gibbous
Nov 6
Last Quarter
Nov 13
New
Nov 20
First Quarter
Nov 28
Full

Hourly Weather History & Observations

Time (HST) Temp. Heat Index Dew Point Humidity Pressure Visibility Wind Dir Wind Speed Gust Speed Precip Events Conditions
12:56 AM 75.0 °F - 42.1 °F 31% 29.95 in 10.0 mi SE 6.9 mph - N/A   Clear
1:56 AM 75.0 °F - 43.0 °F 32% 29.94 in 10.0 mi ESE 6.9 mph - N/A   Clear
2:56 AM 75.0 °F - 39.9 °F 28% 29.92 in 10.0 mi SE 5.8 mph - N/A   Clear
3:56 AM 73.9 °F - 45.0 °F 35% 29.91 in 10.0 mi ESE 5.8 mph - N/A   Clear
4:56 AM 75.0 °F - 46.0 °F 36% 29.90 in 10.0 mi SE 6.9 mph - N/A   Clear
5:56 AM 73.9 °F - 46.0 °F 37% 29.91 in 10.0 mi ESE 5.8 mph - N/A   Clear
6:56 AM 73.9 °F - 48.9 °F 41% 29.94 in 10.0 mi ESE 4.6 mph - N/A   Clear
7:56 AM 78.1 °F - 48.9 °F 36% 29.96 in 10.0 mi ESE 5.8 mph - N/A   Clear
8:56 AM 80.1 °F - 44.1 °F 28% 29.97 in 10.0 mi SE 9.2 mph - N/A   Clear
9:56 AM 82.0 °F - 41.0 °F 23% 29.99 in 10.0 mi SE 9.2 mph - N/A   Clear
10:56 AM 82.0 °F - 37.9 °F 21% 29.98 in 10.0 mi South 11.5 mph - N/A   Clear
11:56 AM 84.0 °F - 23.0 °F 11% 29.96 in 10.0 mi South 11.5 mph 17.3 mph N/A   Partly Cloudy
12:56 PM 84.0 °F - 21.9 °F 10% 29.94 in 10.0 mi South 9.2 mph - N/A   Clear
1:56 PM 84.0 °F - 26.1 °F 12% 29.92 in 10.0 mi South 8.1 mph 16.1 mph N/A   Clear
2:56 PM 84.0 °F - 19.0 °F 9% 29.91 in 10.0 mi South 11.5 mph 17.3 mph N/A   Clear
3:56 PM 82.0 °F - 19.9 °F 10% 29.91 in 10.0 mi South 12.7 mph - N/A   Clear
4:56 PM 81.0 °F - 34.0 °F 18% 29.91 in 10.0 mi South 10.4 mph - N/A   Clear
5:56 PM 80.1 °F 80.2 °F 55.9 °F 43% 29.93 in 10.0 mi SSE 5.8 mph - N/A   Clear
6:56 PM 77.0 °F - 55.0 °F 47% 29.95 in 10.0 mi SSE 5.8 mph - N/A   Clear
7:56 PM 77.0 °F - 54.0 °F 45% 29.97 in 10.0 mi SE 4.6 mph - N/A   Clear
8:56 PM 75.0 °F - 53.1 °F 46% 29.98 in 10.0 mi Calm Calm - N/A   Clear
9:56 PM 75.9 °F - 53.1 °F 45% 29.99 in 10.0 mi East 5.8 mph - N/A   Overcast
10:56 PM 75.0 °F - 52.0 °F 44% 29.99 in 10.0 mi East 4.6 mph - N/A   Clear
11:56 PM 73.9 °F - 51.1 °F 45% 29.98 in 10.0 mi East 4.6 mph - N/A   Partly Cloudy